This demonstration page uses our WeatherBlox Daily Observations layout. Learn more.

Left ArrowRight Arrow

Hourly Observations for April 3, 2017

Temp ( °F °C ) Dew Point ( °F °C ) Humidity (%) Winds ( mph kmh ) Pressure ( in mb ) Visibility ( mi km ) Precip ( " mm )
12:53 am 00:53 Clear 54 12.2 33 0.6 45 45 N 8 13 29.96 1015 10 16 0.00 0.00
1:53 am 01:53 Clear 57 13.9 28 -2.2 33 33 NNW 7 11 29.97 1015 10 16 0.00 0.00
2:53 am 02:53 Clear 57 13.9 26 -3.3 30 30 N 10 17 29.98 1015 10 16 0.00 0.00
3:53 am 03:53 Clear 56 13.3 25 -3.9 30 30 NNW 7 11 29.98 1015 10 16 0.00 0.00
4:53 am 04:53 Clear 54 12.2 25 -3.9 33 33 N 7 11 29.98 1015 10 16 0.00 0.00
5:53 am 05:53 Clear 54 12.2 24 -4.4 31 31 NW 9 15 29.99 1016 10 16 0.00 0.00
6:53 am 06:53 Sunny 54 12.2 22 -5.6 29 29 NNW 10 17 30.00 1016 10 16 0.00 0.00
7:53 am 07:53 Sunny 55 12.8 24 -4.4 30 30 NNW 14 22 30.02 1017 10 16 0.00 0.00
8:53 am 08:53 Sunny 58 14.4 25 -3.9 28 28 N 17 28 30.02 1017 10 16 0.00 0.00
9:53 am 09:53 Sunny 60 15.6 25 -3.9 26 26 N 17 28 30.03 1017 10 16 0.00 0.00
10:53 am 10:53 Sunny 63 17.2 25 -3.9 24 24 NNW 15 24 30.04 1017 10 16 0.00 0.00
11:53 am 11:53 Sunny 66 18.9 22 -5.6 19 19 N 14 22 30.01 1016 10 16 0.00 0.00
12:53 pm 12:53 Sunny 69 20.6 22 -5.6 17 17 NNW 14 22 29.99 1016 10 16 0.00 0.00
1:53 pm 13:53 Sunny 71 21.7 23 -5 16 16 NNW 10 17 29.97 1015 10 16 0.00 0.00
2:53 pm 14:53 Sunny 73 22.8 28 -2.2 19 19 VRB 7 11 29.94 1014 10 16 0.00 0.00
3:53 pm 15:53 Sunny 74 23.3 24 -4.4 15 15 N 7 11 29.92 1013 10 16 0.00 0.00
4:53 pm 16:53 Sunny 74 23.3 27 -2.8 17 17 NNE 9 15 29.90 1013 10 16 0.00 0.00
5:53 pm 17:53 Sunny 72 22.2 23 -5 16 16 N 7 11 29.90 1012 10 16 0.00 0.00
6:53 pm 18:53 Sunny 70 21.1 31 -0.6 23 23 NNW 3 6 29.88 1012 10 16 0.00 0.00
7:53 pm 19:53 Clear 65 18.3 31 -0.6 28 28 WNW 7 11 29.89 1012 10 16 0.00 0.00
8:53 pm 20:53 Clear 62 16.7 34 1.1 35 35 Calm 29.91 1013 10 16 0.00 0.00
9:53 pm 21:53 Clear 61 16.1 34 1.1 36 36 NNW 6 9 29.92 1013 10 16 0.00 0.00
10:53 pm 22:53 Clear 54 12.2 42 5.6 64 64 N 5 7 29.93 1014 10 16 0.00 0.00
11:53 pm 23:53 Clear 57 13.9 38 3.3 49 49 N 5 7 29.94 1014 10 16 0.00 0.00

Powered by AerisWeather